When you browse on this site, cookies collect data to enhance your experience and personalize the content and advertising you see.
Visit our Privacy Policy to learn more. By continuing to use the site, you agree to this use of cookies and data.

Stündliche Wetter Jucás

Heute, 22 September, Dienstag

Zeit Temperatur Niederschläge Wind Luftdruck Luftfeuchtigkeit
00:00 +24°C° 0 mm 2 m/S 734 mmHg 76%
01:00 +23°C° 0 mm 2 m/S 734 mmHg 81%
02:00 +23°C° 0 mm 1 m/S 734 mmHg 86%
03:00 +22°C° 0 mm 1 m/S 734 mmHg 92%
04:00 +22°C° 0 mm 1 m/S 734 mmHg 92%
05:00 +22°C° 0 mm 1 m/S 735 mmHg 92%
06:00 +22°C° 0 mm 1 m/S 735 mmHg 92%
07:00 +25°C° 0 mm 2 m/S 736 mmHg 77%
08:00 +28°C° 0 mm 3 m/S 736 mmHg 63%
09:00 +32°C° 0 mm 4 m/S 737 mmHg 48%
10:00 +34°C° 0 mm 3 m/S 736 mmHg 41%
11:00 +37°C° 0 mm 3 m/S 735 mmHg 34%
12:00 +39°C° 0 mm 3 m/S 735 mmHg 27%
13:00 +40°C° 0 mm 3 m/S 734 mmHg 24%
14:00 +40°C° 0 mm 3 m/S 733 mmHg 22%
15:00 +42°C° 0 mm 3 m/S 732 mmHg 19%
16:00 +39°C° 0 mm 2 m/S 732 mmHg 22%
17:00 +36°C° 0 mm 2 m/S 732 mmHg 25%
18:00 +34°C° 0 mm 2 m/S 732 mmHg 27%
19:00 +31°C° 0 mm 2 m/S 733 mmHg 31%
20:00 +30°C° 0 mm 2 m/S 733 mmHg 35%
21:00 +28°C° 0 mm 2 m/S 734 mmHg 38%
22:00 +27°C° 0 mm 2 m/S 734 mmHg 52%
23:00 +26°C° 0 mm 2 m/S 734 mmHg 66%

Morgen, 23 September, Mittwoch

Zeit Temperatur Niederschläge Wind Luftdruck Luftfeuchtigkeit
00:00 +24°C° 0 mm 2 m/S 734 mmHg 80%
01:00 +23°C° 0 mm 1 m/S 734 mmHg 85%
02:00 +22°C° 0 mm 1 m/S 734 mmHg 90%
03:00 +22°C° 0 mm 1 m/S 734 mmHg 95%
04:00 +20°C° 0 mm 0 m/S 734 mmHg 94%
05:00 +20°C° 0 mm 0 m/S 735 mmHg 93%
06:00 +20°C° 0 mm 0 m/S 735 mmHg 91%
07:00 +25°C° 0 mm 1 m/S 736 mmHg 74%
08:00 +28°C° 0 mm 2 m/S 736 mmHg 58%
09:00 +33°C° 0 mm 3 m/S 737 mmHg 41%
10:00 +35°C° 0 mm 3 m/S 736 mmHg 35%
11:00 +37°C° 0 mm 3 m/S 735 mmHg 29%
12:00 +40°C° 0 mm 3 m/S 735 mmHg 23%
13:00 +40°C° 0 mm 3 m/S 734 mmHg 21%
14:00 +42°C° 0 mm 3 m/S 733 mmHg 20%
15:00 +42°C° 0 mm 3 m/S 732 mmHg 18%
16:00 +39°C° 0 mm 2 m/S 733 mmHg 20%
17:00 +37°C° 0 mm 2 m/S 733 mmHg 23%
18:00 +34°C° 0 mm 1 m/S 733 mmHg 25%
19:00 +34°C° 0 mm 2 m/S 733 mmHg 27%
20:00 +34°C° 0 mm 2 m/S 734 mmHg 29%
21:00 +33°C° 0 mm 3 m/S 735 mmHg 31%
22:00 +30°C° 0.1 mm 2 m/S 735 mmHg 45%
23:00 +28°C° 0.1 mm 2 m/S 735 mmHg 58%

übermorgen, 24 September, Donnerstag

Zeit Temperatur Niederschläge Wind Luftdruck Luftfeuchtigkeit
00:00 +25°C° 0.1 mm 1 m/S 735 mmHg 71%
01:00 +24°C° 0 mm 1 m/S 735 mmHg 77%
02:00 +23°C° 0 mm 1 m/S 735 mmHg 83%
03:00 +22°C° 0 mm 1 m/S 734 mmHg 89%
04:00 +22°C° 0 mm 1 m/S 735 mmHg 86%
05:00 +22°C° 0 mm 1 m/S 735 mmHg 84%
06:00 +21°C° 0 mm 2 m/S 736 mmHg 81%
07:00 +25°C° 0 mm 2 m/S 736 mmHg 68%
08:00 +28°C° 0 mm 3 m/S 736 mmHg 55%
09:00 +32°C° 0 mm 4 m/S 737 mmHg 42%
10:00 +34°C° 0 mm 3 m/S 736 mmHg 36%
11:00 +37°C° 0 mm 3 m/S 735 mmHg 30%
12:00 +39°C° 0 mm 3 m/S 735 mmHg 24%
13:00 +39°C° 0 mm 3 m/S 734 mmHg 21%
14:00 +40°C° 0 mm 3 m/S 733 mmHg 19%
15:00 +42°C° 0 mm 3 m/S 732 mmHg 16%
16:00 +38°C° 0 mm 3 m/S 732 mmHg 18%
17:00 +36°C° 0 mm 2 m/S 732 mmHg 21%
18:00 +32°C° 0 mm 2 m/S 732 mmHg 23%
19:00 +31°C° 0 mm 2 m/S 732 mmHg 26%
20:00 +29°C° 0 mm 2 m/S 733 mmHg 29%
21:00 +27°C° 0 mm 2 m/S 734 mmHg 33%
22:00 +26°C° 0 mm 2 m/S 734 mmHg 48%
23:00 +25°C° 0 mm 1 m/S 734 mmHg 64%

25 September, Freitag

Zeit Temperatur Niederschläge Wind Luftdruck Luftfeuchtigkeit
00:00 +23°C° 0 mm 1 m/S 735 mmHg 79%
01:00 +23°C° 0 mm 1 m/S 735 mmHg 79%
02:00 +22°C° 0 mm 1 m/S 735 mmHg 80%
03:00 +22°C° 0 mm 1 m/S 735 mmHg 80%
04:00 +21°C° 0 mm 1 m/S 735 mmHg 80%
05:00 +21°C° 0 mm 1 m/S 735 mmHg 79%
06:00 +21°C° 0 mm 1 m/S 736 mmHg 79%
07:00 +24°C° 0 mm 2 m/S 736 mmHg 67%
08:00 +27°C° 0 mm 3 m/S 736 mmHg 55%
09:00 +30°C° 0 mm 4 m/S 737 mmHg 43%
10:00 +33°C° 0 mm 3 m/S 736 mmHg 37%
11:00 +36°C° 0 mm 3 m/S 735 mmHg 30%
12:00 +38°C° 0 mm 3 m/S 734 mmHg 24%
13:00 +39°C° 0 mm 3 m/S 733 mmHg 21%
14:00 +39°C° 0 mm 3 m/S 732 mmHg 19%
15:00 +40°C° 0 mm 3 m/S 731 mmHg 16%
16:00 +37°C° 0 mm 2 m/S 732 mmHg 19%
17:00 +35°C° 0 mm 2 m/S 732 mmHg 23%
18:00 +31°C° 0 mm 1 m/S 732 mmHg 26%
19:00 +31°C° 0 mm 2 m/S 732 mmHg 29%
20:00 +30°C° 0 mm 3 m/S 733 mmHg 31%
21:00 +30°C° 0 mm 3 m/S 734 mmHg 34%
22:00 +29°C° 0.1 mm 3 m/S 734 mmHg 41%
23:00 +28°C° 0.1 mm 2 m/S 734 mmHg 48%

26 September, Samstag

Zeit Temperatur Niederschläge Wind Luftdruck Luftfeuchtigkeit
00:00 +27°C° 0.1 mm 2 m/S 734 mmHg 56%
01:00 +25°C° 0.1 mm 2 m/S 734 mmHg 60%
02:00 +24°C° 0.1 mm 2 m/S 734 mmHg 64%
03:00 +23°C° 0.1 mm 2 m/S 734 mmHg 69%
04:00 +23°C° 0 mm 1 m/S 734 mmHg 70%
05:00 +22°C° 0 mm 1 m/S 734 mmHg 72%
06:00 +21°C° 0 mm 1 m/S 735 mmHg 74%
07:00 +24°C° 0 mm 2 m/S 735 mmHg 63%
08:00 +27°C° 0 mm 2 m/S 735 mmHg 52%
09:00 +30°C° 0 mm 3 m/S 736 mmHg 41%
10:00 +34°C° 0 mm 3 m/S 735 mmHg 35%
11:00 +36°C° 0 mm 3 m/S 734 mmHg 30%
12:00 +39°C° 0 mm 3 m/S 734 mmHg 24%
13:00 +39°C° 0 mm 3 m/S 733 mmHg 22%
14:00 +39°C° 0 mm 3 m/S 732 mmHg 21%
15:00 +40°C° 0 mm 3 m/S 731 mmHg 19%
16:00 +37°C° 0 mm 2 m/S 731 mmHg 22%
17:00 +35°C° 0 mm 2 m/S 731 mmHg 26%
18:00 +31°C° 0 mm 2 m/S 731 mmHg 29%
19:00 +30°C° 0 mm 1 m/S 732 mmHg 32%
20:00 +29°C° 0 mm 1 m/S 732 mmHg 35%
21:00 +27°C° 0 mm 1 m/S 733 mmHg 38%
22:00 +26°C° 0 mm 1 m/S 733 mmHg 50%
23:00 +25°C° 0 mm 2 m/S 733 mmHg 62%

27 September, Sonntag

Zeit Temperatur Niederschläge Wind Luftdruck Luftfeuchtigkeit
00:00 +24°C° 0 mm 2 m/S 733 mmHg 75%
01:00 +23°C° 0 mm 2 m/S 733 mmHg 79%
02:00 +22°C° 0 mm 1 m/S 733 mmHg 84%
03:00 +21°C° 0 mm 1 m/S 732 mmHg 89%
04:00 +22°C° 0 mm 1 m/S 733 mmHg 87%
05:00 +22°C° 0 mm 1 m/S 733 mmHg 84%
06:00 +22°C° 0 mm 1 m/S 733 mmHg 82%
07:00 +25°C° 0 mm 2 m/S 734 mmHg 69%
08:00 +28°C° 0 mm 3 m/S 735 mmHg 56%
09:00 +30°C° 0 mm 3 m/S 735 mmHg 43%
10:00 +34°C° 0 mm 3 m/S 735 mmHg 36%
11:00 +36°C° 0 mm 3 m/S 734 mmHg 29%
12:00 +38°C° 0 mm 3 m/S 733 mmHg 22%
13:00 +39°C° 0 mm 3 m/S 733 mmHg 20%
14:00 +39°C° 0 mm 3 m/S 732 mmHg 19%
15:00 +40°C° 0 mm 3 m/S 731 mmHg 17%
16:00 +38°C° 0 mm 2 m/S 731 mmHg 20%
17:00 +35°C° 0 mm 2 m/S 731 mmHg 23%
18:00 +32°C° 0 mm 2 m/S 731 mmHg 25%
19:00 +31°C° 0 mm 2 m/S 731 mmHg 30%
20:00 +29°C° 0 mm 2 m/S 732 mmHg 34%
21:00 +28°C° 0 mm 2 m/S 732 mmHg 38%
22:00 +27°C° 0 mm 2 m/S 732 mmHg 52%
23:00 +25°C° 0 mm 1 m/S 733 mmHg 66%
Mehr zeigen